This demonstration page uses our WeatherBlox Daily Observations layout. Learn more.

Left ArrowRight Arrow

Hourly Observations for August 11, 2022

Temp ( °F °C ) Dew Point ( °F °C ) Humidity (%) Winds ( mph kmh ) Pressure ( in mb ) Visibility ( mi km ) Precip ( " mm )
12:53 am 00:53 Clear 70 21.1 41 5 35 35 N 5 7 29.98 1015 10 16 0.00 0.00
1:53 am 01:53 Clear 68 20 41 5 37 37 Calm 29.99 1016 10 16 0.00 0.00
2:53 am 02:53 Clear 67 19.4 42 5.6 40 40 Calm 29.99 1016 10 16 0.00 0.00
3:53 am 03:53 Clear 66 18.9 41 5 40 40 N 5 7 30.00 1016 10 16 0.00 0.00
4:53 am 04:53 Clear 64 17.8 40 4.4 41 41 Calm 29.99 1016 10 16 0.00 0.00
5:53 am 05:53 Clear 63 17.2 41 5 44 44 Calm 30.00 1016 10 16 0.00 0.00
6:53 am 06:53 Sunny 64 17.8 42 5.6 45 45 Calm 30.01 1016 10 16 0.00 0.00
7:53 am 07:53 Sunny 70 21.1 42 5.6 36 36 NNE 3 6 30.01 1016 10 16 0.00 0.00
8:53 am 08:53 Sunny 75 23.9 41 5 29 29 NE 3 6 30.01 1016 10 16 0.00 0.00
9:53 am 09:53 Sunny 80 26.7 40 4.4 24 24 Calm 30.00 1016 10 16 0.00 0.00
10:53 am 10:53 Sunny 84 28.9 40 4.4 21 21 VRB 3 6 29.99 1016 10 16 0.00 0.00
11:53 am 11:53 Sunny 89 31.7 41 5 19 19 VRB 3 6 29.98 1015 10 16 0.00 0.00
12:53 pm 12:53 Sunny 91 32.8 37 2.8 15 15 S 7 11 29.97 1015 10 16 0.00 0.00
1:53 pm 13:53 Sunny 93 33.9 38 3.3 15 15 SSW 9 15 29.96 1014 10 16 0.00 0.00
2:53 pm 14:53 Sunny 95 35 33 0.6 11 11 SSW 5 7 29.94 1014 10 16 0.00 0.00
3:53 pm 15:53 Sunny 96 35.6 26 -3.3 8 8 S 10 17 29.92 1013 10 16 0.00 0.00
4:53 pm 16:53 Sunny 96 35.6 27 -2.8 9 9 S 14 22 29.89 1012 10 16 0.00 0.00
5:53 pm 17:53 Sunny 96 35.6 26 -3.3 8 8 SSE 13 20 29.88 1012 10 16 0.00 0.00
6:53 pm 18:53 Sunny 94 34.4 24 -4.4 8 8 S 14 22 29.87 1012 10 16 0.00 0.00
7:53 pm 19:53 Sunny 91 32.8 26 -3.3 10 10 S 8 13 29.88 1012 10 16 0.00 0.00
8:53 pm 20:53 Clear 85 29.4 30 -1.1 14 14 S 7 11 29.89 1012 10 16 0.00 0.00
9:53 pm 21:53 Clear 83 28.3 34 1.1 17 17 Calm 29.90 1013 10 16 0.00 0.00
10:53 pm 22:53 Clear 78 25.6 36 2.2 22 22 N 5 7 29.91 1013 10 16 0.00 0.00
11:53 pm 23:53 Clear 76 24.4 36 2.2 23 23 Calm 29.91 1013 10 16 0.00 0.00

Powered by AerisWeather